Tracking 32139 objects as of 16-Nov-2025
HD Live streaming from Space Station
objects crossing your sky now

STARLINK-34285

Track STARLINK-34285 now!
10-day predictions
STARLINK-34285 is classified as:


NORAD ID: 65101
Int'l Code: 2025-167Z
Perigee: 480.3 km
Apogee: 484.2 km
Inclination: 53.2 °
Period: 94.1 minutes
Semi major axis: 6853 km
RCS: Unknown
Launch date: August 4, 2025
Source: United States (US)
Launch site: AIR FORCE EASTERN TEST RANGE (AFETR)
Your satellite tracking list
Your tracking list is empty




NASA's NSSDC Master Catalog

Two Line Element Set (TLE):
1 65101U 25167Z   25319.66628222  .00027501  00000-0  93606-3 0  9990
2 65101  53.1583 196.1885 0002801  85.8205 274.3115 15.30238296 16028
Source of the keplerian elements: AFSPC